Regional Weather Roundup
Issued by NWS

Home | Current Version | Previous Version | Text Only | Print | Product List | Glossary Off
Versions: 1 2 3 4 5 6 7 8 9 10 11 12 13 14 15 16 17 18 19 20 21 22 23 24 25 26 27 28 29 30 31 32 33 34 35 36 37 38 39 40 41 42 43 44 45 46 47 48 49 50

000
ASUS45 KSLC 271210
RWRUT

UTAH REGIONAL WEATHER ROUNDUP
NATIONAL WEATHER SERVICE SALT LAKE CITY UT
600 AM MDT SAT AUG 27 2016

UTZ001>011-023>025-271300-

NORTHERN UTAH

CITY           SKY/WX    TMP DP  RH WIND       PRES   REMARKS
BRIGHAM CITY     N/A     51  36  57 CALM      30.05S
HILL AFB       CLEAR     58  29  33 E16       30.07R
LOGAN          CLEAR     42  39  89 NW5       30.07R
OGDEN          CLEAR     58  30  34 S13       30.04R
PROVO AIRPORT  PTCLDY    55  39  54 SE9       30.09R
SALT LAKE CITY PTCLDY    63  36  36 SE7       30.04R
VERNAL         CLEAR     47  44  90 W3        30.17R
WENDOVER       PTCLDY    55  28  35 SW3       30.04S
HEBER CITY     PTCLDY    45  34  65 CALM      30.14S
WEST JORDAN    PTCLDY    61  43  52 SW6       30.08R

$$

UTZ012>022-026-027-271300-

SOUTHERN/CENTRAL UTAH

CITY           SKY/WX    TMP DP  RH WIND       PRES   REMARKS
BLANDING       CLOUDY    55  47  74 N7        30.25S
BRYCE CANYON   CLOUDY    46  43  89 NW5       30.26F
CEDAR CITY     CLOUDY    53  48  83 S8        30.15R
MILFORD        CLOUDY    59  47  64 S14       30.11S
MOAB/CYNLANDS  CLOUDY    62  45  53 SE7       30.09S
PRICE          MOCLDY    51  40  65 N7        30.18R
ST GEORGE      PTSUNNY   63  55  77 E6        30.13S

$$

REGIONAL REPORTS     COLORADO/ARIZONA

CITY           SKY/WX    TMP DP  RH WIND       PRES   REMARKS
CRAIG, CO      CLOUDY    45  39  79 CALM      30.21R
GRAND JUNCTION PTCLDY    55  47  74 E5        30.15S
RIFLE          CLOUDY    49  48  97 SE5       30.22S
MONTROSE       PTCLDY    53  44  71 W5        30.23R
CORTEZ         CLOUDY    53  48  83 NE5       30.19S
PAGE, AZ       CLOUDY    63  54  72 CALM      30.11R
GRAND CANYON   LGT RAIN  54  51  90 SW8       30.28R FOG
KINGMAN        CLOUDY    66  54  65 SE23      30.05R
FLAGSTAFF      LGT RAIN  49  49 100 NW3       30.24S

$$

REGIONAL REPORTS    NEVADA/IDAHO/WYOMING

CITY           SKY/WX    TMP DP  RH WIND       PRES   REMARKS
LAS VEGAS, NV  MOCLDY    75  50  41 NE17      30.00R
ELY            CLEAR     44  33  65 SE7       30.17R
ELKO           PTCLDY    47  23  38 E5        30.09S
POCATELLO, ID  CLEAR     42  32  67 N8        30.04R
BURLEY         PTCLDY    52  35  52 CALM      30.00R
EVANSTON, WY   CLOUDY    46  25  43 S7        30.21R
ROCK SPRINGS   CLOUDY    49  34  56 SW9       30.17S

$$



USA.gov is the U.S. government's official web portal to all federal, state and local government web resources and services.